Regional Weather Roundup
Issued by NWS

Home | Current Version | Previous Version | Graphics & Text | Print | Product List | Glossary On
Versions: 1 2 3 4 5 6 7 8 9 10 11 12 13 14 15 16 17 18 19 20 21 22 23 24 25 26 27 28 29 30 31 32 33 34 35 36 37 38 39 40 41 42 43 44 45 46 47 48 49 50
000
ASUS43 KLMK 291102
RWRKY
KENTUCKY REGIONAL WEATHER ROUNDUP
NATIONAL WEATHER SERVICE LOUISVILLE KY
700 AM EDT SUN MAY 29 2016

NOTE "FAIR" INDICATES FEW OR NO CLOUDS BELOW 12,000 FEET
WITH NO SIGNIFICANT WEATHER AND/OR OBSTRUCTIONS TO VISIBILITY.

KYZ001>023-026-027-061>063-070>075-291200-
WESTERN AND SOUTH CENTRAL KENTUCKY

CITY           SKY/WX    TMP DP  RH WIND       PRES   REMARKS
PADUCAH        PTCLDY    68  64  87 S5        30.07S
HENDERSON      MOCLDY    66  61  82 CALM      30.07S
OWENSBORO      PTCLDY    67  67 100 E3        30.10R
HOPKINSVILLE   NOT AVBL
BOWLING GREEN  CLEAR     64  63  96 CALM      30.11R FOG
GLASGOW        NOT AVBL
$$

KYZ024-025-028>034-038-045-046-053-291200-
NORTH CENTRAL KENTUCKY

CITY           SKY/WX    TMP DP  RH WIND       PRES   REMARKS
LOUISVILLE/SDF CLOUDY    67  63  87 CALM      30.11R
LOUISVILLE/LOU CLOUDY    68  62  81 CALM      30.11R
FORT KNOX      CLEAR     65  63  95 S2        30.11R
$$

KYZ035>037-039>044-047>052-055>060-089>105-291200-
NORTHEAST KENTUCKY

CITY           SKY/WX    TMP DP  RH WIND       PRES   REMARKS
LEXINGTON      CLOUDY    69  63  81 SE7       30.12S
COVINGTON      CLOUDY    69  63  81 CALM      30.11R
FRANKFORT      MOCLDY    68  62  81 CALM      30.10R
$$

KYZ054-064>069-076>088-106>120-291200-
SOUTHEAST KENTUCKY

CITY           SKY/WX    TMP DP  RH WIND       PRES   REMARKS
JACKSON        CLOUDY    68  61  78 CALM      30.16R
LONDON         MOCLDY    65  63  93 CALM      30.15R
SOMERSET       NOT AVBL
MIDDLESBORO    CLOUDY    64  63  98 CALM      30.17R
MONTICELLO     CLOUDY    64  63  96 CALM      30.16R
$$





USA.gov is the U.S. government's official web portal to all federal, state and local government web resources and services.